Regional Weather Roundup
Issued by NWS

Home | Current Version | Previous Version | Text Only | Print | Product List | Glossary On
Versions: 1 2 3 4 5 6 7 8 9 10 11 12 13 14 15 16 17 18 19 20 21 22 23 24 25 26 27 28 29 30 31 32 33 34 35 36 37 38 39 40 41 42 43 44 45 46 47 48 49 50
000
ASUS43 KDTX 250501
RWRMI
MICHIGAN HOURLY REGIONAL WEATHER ROUNDUP
NATIONAL WEATHER SERVICE DETROIT/PONTIAC MI
100 AM EDT WED APR 25 2018

NOTE: "FAIR" INDICATES FEW OR NO CLOUDS BELOW 12,000 FEET WITH NO
SIGNIFICANT WEATHER AND/OR OBSTRUCTION TO VISIBILITY.

MIZ047>049-052>055-059>063-066>070-074>076-081>083-250600-
SOUTHEAST LOWER MICHIGAN

CITY           SKY/WX    TMP DP  RH WIND       PRES   REMARKS
ADRIAN         CLOUDY    50  50 100 NE6       29.95F FOG
ALMA           DRIZZLE   52  52 100 NW8       29.98F
ANN ARBOR      CLOUDY    51  50  96 N6        29.95S FOG
BAD AXE        CLOUDY    52  47  85 NE3       29.98F
CARO           LGT RAIN  50  48  94 CALM      29.97S
DETROIT CITY   CLOUDY    49  48  97 E7        29.95F FOG
DETROIT        LGT RAIN  51  49  92 NE5       29.95F FOG
FLINT          LGT RAIN  50  49  96 E3        29.97S
GROSSE ILE     CLOUDY    50  49  97 NE6       29.93F FOG
HILLSDALE      DRIZZLE   50  48  93 NW3       29.95S
HOWELL         RAIN      50  50  98 CALM      29.96S

CITY           SKY/WX    TMP DP  RH WIND       PRES   REMARKS
JACKSON        CLOUDY    52  51  97 N3        29.96S FOG
LAMBERTVILLE   DRIZZLE   49  47  92 E5        29.93F
LANSING        LGT RAIN  51  51 100 N3        29.97F FOG
LAPEER         DRIZZLE   50  49  97 CALM      29.96F
MASON          RAIN      53  49  88 CALM      29.96S
PONTIAC        CLOUDY    50  50 100 CALM      29.95S FOG
PORT HOPE        N/A     43  42  97 CALM      29.97F
PORT HURON     DRIZZLE   50  48  93 E3        29.97S
TRI CITIES     LGT RAIN  50  48  93 N5        29.98F FOG
MIDLAND        DRIZZLE   49  49 100 CALM      29.98F
TROY           DRIZZLE   51  49  95 NE5       29.97F
SAGINAW HB     RAIN      50  48  93 CALM      29.97F
$$
MIZ043>046-050>051-056>058-064>065-071>073-077>080-250600-
SOUTHWEST LOWER MICHIGAN

CITY           SKY/WX    TMP DP  RH WIND       PRES   REMARKS
BATTLE CREEK   CLOUDY    52  51  97 CALM      29.97F
BENTON HARBOR  CLOUDY    48  43  82 CALM      29.99S
BIG RAPIDS     CLOUDY    47  34  61 N9        30.01S
COLDWATER      CLOUDY    51  51 100 N3        29.96F FOG
FREMONT        CLOUDY    49  30  47 N13G18    30.02R
HOLLAND        FAIR      54  50  86 NE3       29.99F
GRAND RAPIDS   LGT RAIN  53  51  93 N5        29.98F
IONIA          CLOUDY    52  51  98 N6        29.96F
KALAMAZOO      CLOUDY    54  51  90 CALM      29.97F
LUDINGTON      CLOUDY    46  32  57 N9        30.06S
MARSHALL       CLOUDY    51  51  99 CALM      29.96F FOG
MOUNT PLEASANT CLOUDY    52  52  99 N5        29.98F
MUSKEGON       CLOUDY    53  47  79 N7        30.01S
SOUTH HAVEN    CLOUDY    51  45  81 CALM      29.99S
$$
MIZ016>042-250600-
NORTHERN LOWER MICHIGAN

CITY           SKY/WX    TMP DP  RH WIND       PRES   REMARKS
ALPENA         LGT RAIN  42  39  89 W3        30.02F
BEAVER ISLAND  CLOUDY    41  33  72 N9        30.10S
BELLAIRE       CLOUDY    44  28  52 N5        30.08F
CADILLAC       LGT RAIN  40  37  89 N3        30.05S
CHARLEVOIX     CLOUDY    40  31  69 NW7       30.12F
FRANKFORT      MOCLDY    43  30  59 N7        30.10S
GAYLORD        CLOUDY    43  30  60 VRB5      30.04S
HARBOR SPRINGS CLOUDY    40  29  65 W3        30.07S
HOUGHTON LAKE  CLOUDY    43  36  76 N12       30.03R
MANISTEE       FAIR      46  29  51 N5        30.08R
OSCODA         LGT RAIN  46  45  97 CALM      30.00F
PELLSTON       CLOUDY    43  29  57 NW10      30.07S
ROGERS CITY    CLOUDY    41  31  67 NW6       30.04F
TRAVERSE CITY  CLOUDY    45  29  53 N6        30.08F
$$
MIZ007>008-015-250600-
EASTERN UPPER MICHIGAN

CITY           SKY/WX    TMP DP  RH WIND       PRES   REMARKS
KINROSS        CLOUDY    41  33  73 NW14G21   30.06R
MACKINAC ISLAN CLOUDY    42  31  64 NW15G23   30.05F
NEWBERRY       CLOUDY    37  32  82 NW8       30.09F WCI  31
S. S. MARIE    CLOUDY    44  31  60 NW8       30.05F
MUNISING         N/A     36  31  82 NW9       30.14F WCI  29
$$
MIZ004>006-011>014-085-250600-
CENTRAL UPPER MICHIGAN

CITY           SKY/WX    TMP DP  RH WIND       PRES   REMARKS
ESCANABA       FAIR      40  32  73 NW6       30.15S
MENOMINEE      RAIN      42  38  85 NE6       30.16R
SAWYER-GWINN   FAIR      35  26  68 N14       30.15F WCI  26
$$
MIZ001>003-009>011-084-250600-
WESTERN UPPER MICHIGAN

CITY           SKY/WX    TMP DP  RH WIND       PRES   REMARKS
IRON MOUNTAIN  FAIR      36  34  92 NW3       30.15S
HOUGHTON       FAIR      36  24  62 N16G23    30.21R WCI  26
COPPER HARBOR    N/A     36  28  73 NE14      30.21F WCI  27
IRONWOOD       FAIR      34  28  79 NE3       30.24R
$$

ABBREVIATIONS USED IN REMARKS
   TC - TEMPERATURE IN CELSIUS
  WCI - WIND CHILL INDEX
   HX - HEAT INDEX
  VSB - VISIBILITY





USA.gov is the U.S. government's official web portal to all federal, state and local government web resources and services.